Location: Libas
(9.8833°N, 125.9833°E)
Time: 07:07:45
(UTC+00:00)

Daily predictions for brighter satellites

Satellite Brightness Start Highest point End
(mag) Time Altitude Azimuth Time Altitude Azimuth Time Altitude Azimuth
Cosmos 1634 Rocket 4.3 19:14:10 59° SSE 19:14:10 59° SSE 19:19:10 10° S
Cosmos 2082 Rocket 3.5 19:22:04 29° NNE 19:22:04 29° NNE 19:24:42 10° NNE
H-II Stage 2 4.0 19:26:42 68° N 19:26:42 68° N 19:30:03 10° NE
ATLAS 3B R/B 4.4 19:36:15 16° N 19:36:15 16° N 19:37:31 10° N
ALOS 3.6 19:28:17 10° NNE 19:32:37 38° E 19:36:56 10° S
Cosmos 2251 Rocket 3.5 19:32:01 10° S 19:37:23 85° ESE 19:42:44 10° NNE
Cosmos 1356 Rocket 4.0 19:40:56 53° ENE 19:41:16 55° E 19:45:14 10° SSE
GPS 2-17 Rocket1 4.5 19:43:30 26° NNE 19:43:30 26° NNE 19:47:01 10° ENE
ADEOS Rocket 3.7 19:37:55 10° SSE 19:43:23 47° ENE 19:48:36 10° N
Meteor 2-5 Rocket 3.8 19:38:46 10° S 19:44:20 78° E 19:49:59 10° N
BLOCK DM-SL R/B 4.3 19:43:26 26° SSW 19:45:12 34° SSE 19:59:27 10° E
deb Chang Zheng 4 4.0 19:46:59 10° NNE 19:51:11 60° ESE 19:55:25 10° S
Cosmos 1092 Rocket 4.4 19:46:30 10° S 19:52:32 61° E 19:58:35 10° NNE
Nadezhda 4 Rocket 3.8 19:51:03 10° SSW 19:57:05 62° W 20:03:07 10° N
Cosmos 1953 2.5 19:58:21 53° SSW 19:58:21 53° SSW 20:01:39 10° S
Cosmos 1331 Rocket 3.9 19:56:17 22° NNW 19:59:40 88° WSW 20:04:56 10° SSE
SL-19 R/B 4.5 19:58:36 10° NNE 20:01:35 54° ESE 20:04:55 10° S
Cosmos 1484 Rocket 2.6 20:06:34 10° N 20:10:15 59° WNW 20:13:55 10° SSW
CZ-4C R/B 4.0 20:08:25 10° S 20:10:20 29° SSW 20:10:20 29° SSW
FENGYUN 3A 3.6 20:06:57 10° N 20:12:19 63° WNW 20:17:39 10° SSW
ARIANE 5 R/B 3.4 20:05:57 18° WSW 20:14:05 37° SSW 20:17:32 10° ESE
Stardust Del rocket 4.1 20:18:49 21° N 20:18:49 21° N 20:21:00 10° NE
Cosmos 2180 Rocket 4.5 20:13:05 10° NNW 20:19:06 58° W 20:25:06 10° S
Cosmos 407 Rocket 3.9 20:16:04 10° S 20:21:07 63° ESE 20:26:09 10° NNE
Cosmos 1140 Rocket 4.4 20:19:50 10° S 20:24:49 51° ESE 20:29:47 10° NNE
GPS 2-18 Rocket1 4.0 20:24:05 27° NW 20:25:01 32° NNW 20:28:20 10° NE
ARIANE 5 DEB (SYLDA) 3.9 20:25:56 21° WSW 20:28:08 58° S 20:37:50 10° E
Cosmos 1302 Rocket 4.0 20:25:37 10° NNW 20:30:53 89° ENE 20:36:07 10° SSE
ARIANE 44L R/B 3.7 20:25:17 12° WSW 20:33:25 43° S 20:36:14 10° ESE
Cosmos 292 Rocket 4.1 20:29:04 10° NNW 20:33:39 44° WSW 20:38:14 10° S
Meteor 1-31 Rocket 3.3 20:31:19 10° N 20:34:55 36° WNW 20:38:30 10° SW
ATLAS CENTAUR R/B 1.3 20:31:03 10° SSW 20:35:16 59° WNW 20:39:14 10° NNE
CZ-4B R/B 3.0 20:31:56 10° N 20:36:12 81° WNW 20:40:39 10° SSW
ADEOS 4.4 20:32:33 10° NNW 20:36:56 28° WNW 20:41:20 10° SW
ERS-2 2.1 20:33:20 10° SSE 20:36:58 87° ENE 20:40:35 10° N
IUS-18 SRM-1 4.1 20:25:07 13° WNW 20:39:39 60° NNE 20:43:32 10° E
Cosmos 1428 Rocket 4.5 20:35:46 10° SSW 20:41:59 64° W 20:48:08 10° N
GPS 2-15 Rocket1 3.3 20:38:14 16° W 20:42:08 65° NNW 20:47:03 10° ENE
Cosmos 1726 Rocket 4.2 20:39:51 10° N 20:44:14 60° E 20:48:37 10° SSE
SEDSat Delta rocket 4.4 20:43:31 13° WSW 20:45:55 20° SW 20:48:56 10° SSE
Cosmos 44 Rocket 3.8 20:43:11 10° NNW 20:48:20 68° ENE 20:53:27 10° SSE
COSMO-SKYMED 1 4.2 20:46:05 10° SE 20:50:05 37° ENE 20:54:03 10° N
Cosmos 2228 3.0 20:46:16 10° N 20:50:37 72° W 20:55:00 10° S
H-2A R/B 3.4 20:48:02 10° SSW 20:51:25 21° W 20:54:47 10° NW
Cosmos 2026 Rocket 4.3 20:48:06 10° SSW 20:54:04 45° W 21:00:06 10° NNW
Cosmos 1606 Rocket 3.7 20:55:32 10° NNW 20:59:54 57° W 21:04:16 10° S
USA 267 4.1 20:56:06 10° NE 21:02:28 56° SE 21:08:50 10° SSW
